Time,TemperatureF,DewpointF,PressureIn,WindDirection,WindDirectionDegrees,WindSpeedMPH,WindSpeedGustMPH,Humidity,HourlyPrecipIn,Conditions,Clouds,dailyrainin,SolarRadiationWatts/m^2,SoftwareType,DateUTC
2013-01-04 00:00:00,32.9,22.4,30.18,WNW,302,5.0,5.0,65,0.00,,,0.00,0,Wunderground v.1.15,2013-01-04 05:00:00,
2013-01-04 00:04:00,33.0,22.9,30.18,West,269,5.0,6.0,66,0.00,,,0.00,0,Wunderground v.1.15,2013-01-04 05:04:00,
2013-01-04 00:05:00,33.0,22.5,30.18,WNW,286,5.0,6.0,65,0.00,,,0.00,0,Wunderground v.1.15,2013-01-04 05:05:00,
2013-01-04 00:11:00,32.9,22.8,30.18,WNW,300,4.0,5.0,66,0.00,,,0.00,0,Wunderground v.1.15,2013-01-04 05:11:00,
2013-01-04 00:16:00,32.9,22.8,30.18,West,270,4.0,6.0,66,0.00,,,0.00,0,Wunderground v.1.15,2013-01-04 05:16:00,
2013-01-04 00:22:00,33.0,22.9,30.18,West,268,3.0,5.0,66,0.00,,,0.00,0,Wunderground v.1.15,2013-01-04 05:22:00,
2013-01-04 00:27:00,33.0,22.9,30.18,WNW,283,3.0,5.0,66,0.00,,,0.00,0,Wunderground v.1.15,2013-01-04 05:27:00,
2013-01-04 00:28:00,33.0,22.9,30.18,West,273,3.0,6.0,66,0.00,,,0.00,0,Wunderground v.1.15,2013-01-04 05:28:00,
2013-01-04 00:34:00,33.0,22.9,30.18,West,272,4.0,9.0,66,0.00,,,0.00,0,Wunderground v.1.15,2013-01-04 05:34:00,
2013-01-04 00:40:00,33.1,23.0,30.18,West,271,5.0,6.0,66,0.00,,,0.00,0,Wunderground v.1.15,2013-01-04 05:40:00,
2013-01-04 00:46:00,33.1,23.0,30.17,West,271,4.0,6.0,66,0.00,,,0.00,0,Wunderground v.1.15,2013-01-04 05:46:00,
2013-01-04 00:52:00,33.1,23.0,30.17,West,260,4.0,5.0,66,0.00,,,0.00,0,Wunderground v.1.15,2013-01-04 05:52:00,
2013-01-04 00:58:00,33.1,23.0,30.17,West,277,5.0,7.0,66,0.00,,,0.00,0,Wunderground v.1.15,2013-01-04 05:58:00,
2013-01-04 01:04:00,33.1,23.0,30.17,WNW,293,5.0,6.0,66,0.00,,,0.00,0,Wunderground v.1.15,2013-01-04 06:04:00,
2013-01-04 01:10:00,33.1,23.0,30.17,WNW,293,5.0,6.0,66,0.00,,,0.00,0,Wunderground v.1.15,2013-01-04 06:10:00,
2013-01-04 01:15:00,33.1,23.0,30.17,West,271,5.0,6.0,66,0.00,,,0.00,0,Wunderground v.1.15,2013-01-04 06:15:00,
2013-01-04 01:21:00,33.0,22.9,30.17,NW,310,6.0,6.0,66,0.00,,,0.00,0,Wunderground v.1.15,2013-01-04 06:21:00,
2013-01-04 01:26:00,32.9,23.1,30.17,West,263,6.0,9.0,67,0.00,,,0.00,0,Wunderground v.1.15,2013-01-04 06:26:00,
2013-01-04 01:32:00,32.8,23.0,30.17,NW,306,4.0,5.0,67,0.00,,,0.00,0,Wunderground v.1.15,2013-01-04 06:32:00,
2013-01-04 01:38:00,32.9,23.1,30.17,WNW,288,4.0,5.0,67,0.00,,,0.00,0,Wunderground v.1.15,2013-01-04 06:38:00,
2013-01-04 01:43:00,32.9,23.1,30.17,West,259,4.0,7.0,67,0.00,,,0.00,0,Wunderground v.1.15,2013-01-04 06:43:00,
2013-01-04 01:49:00,32.9,23.1,30.17,WNW,299,4.0,7.0,67,0.00,,,0.00,0,Wunderground v.1.15,2013-01-04 06:49:00,
2013-01-04 01:55:00,32.8,23.0,30.17,West,269,5.0,7.0,67,0.00,,,0.00,0,Wunderground v.1.15,2013-01-04 06:55:00,
2013-01-04 02:00:00,32.9,23.1,30.18,NW,309,5.0,6.0,67,0.00,,,0.00,0,Wunderground v.1.15,2013-01-04 07:00:00,
2013-01-04 02:06:00,32.9,23.1,30.18,WNW,292,5.0,6.0,67,0.00,,,0.00,0,Wunderground v.1.15,2013-01-04 07:06:00,
2013-01-04 02:11:00,32.9,23.1,30.18,West,259,4.0,4.0,67,0.00,,,0.00,0,Wunderground v.1.15,2013-01-04 07:11:00,
2013-01-04 02:17:00,32.8,23.0,30.18,West,272,5.0,6.0,67,0.00,,,0.00,0,Wunderground v.1.15,2013-01-04 07:17:00,
2013-01-04 02:23:00,32.8,22.7,30.18,WNW,283,5.0,10.0,66,0.00,,,0.00,0,Wunderground v.1.15,2013-01-04 07:23:00,
2013-01-04 02:28:00,32.8,23.0,30.18,West,269,5.0,10.0,67,0.00,,,0.00,0,Wunderground v.1.15,2013-01-04 07:28:00,
2013-01-04 02:34:00,32.7,22.9,30.18,WNW,286,5.0,7.0,67,0.00,,,0.00,0,Wunderground v.1.15,2013-01-04 07:34:00,
2013-01-04 02:39:00,32.7,22.9,30.18,SE,142,5.0,8.0,67,0.00,,,0.00,0,Wunderground v.1.15,2013-01-04 07:39:00,
2013-01-04 02:45:00,32.7,22.9,30.19,West,273,6.0,8.0,67,0.00,,,0.00,0,Wunderground v.1.15,2013-01-04 07:45:00,
2013-01-04 02:50:00,32.7,22.9,30.19,WSW,246,5.0,5.0,67,0.00,,,0.00,0,Wunderground v.1.15,2013-01-04 07:50:00,
2013-01-04 02:56:00,32.7,22.9,30.19,SW,215,5.0,7.0,67,0.00,,,0.00,0,Wunderground v.1.15,2013-01-04 07:56:00,
2013-01-04 03:02:00,32.7,22.9,30.19,West,279,5.0,6.0,67,0.00,,,0.00,0,Wunderground v.1.15,2013-01-04 08:02:00,
2013-01-04 03:07:00,32.6,22.8,30.18,SE,138,4.0,6.0,67,0.00,,,0.00,0,Wunderground v.1.15,2013-01-04 08:07:00,
2013-01-04 03:12:00,32.6,22.8,30.19,West,277,5.0,5.0,67,0.00,,,0.00,0,Wunderground v.1.15,2013-01-04 08:12:00,
2013-01-04 03:18:00,32.5,23.1,30.19,West,279,5.0,8.0,68,0.00,,,0.00,0,Wunderground v.1.15,2013-01-04 08:18:00,
2013-01-04 03:23:00,32.6,22.8,30.19,WSW,255,6.0,9.0,67,0.00,,,0.00,0,Wunderground v.1.15,2013-01-04 08:23:00,
2013-01-04 03:28:00,32.6,22.8,30.19,WSW,256,5.0,9.0,67,0.00,,,0.00,0,Wunderground v.1.15,2013-01-04 08:28:00,
2013-01-04 03:34:00,32.6,22.8,30.18,West,263,5.0,10.0,67,0.00,,,0.00,0,Wunderground v.1.15,2013-01-04 08:34:00,
2013-01-04 03:39:00,32.6,23.2,30.18,West,279,5.0,10.0,68,0.00,,,0.00,0,Wunderground v.1.15,2013-01-04 08:39:00,
2013-01-04 03:45:00,32.5,22.8,30.18,NNW,338,5.0,6.0,67,0.00,,,0.00,0,Wunderground v.1.15,2013-01-04 08:45:00,
2013-01-04 03:51:00,32.5,23.1,30.18,West,275,4.0,5.0,68,0.00,,,0.00,0,Wunderground v.1.15,2013-01-04 08:51:00,
2013-01-04 03:57:00,32.4,22.7,30.18,WSW,255,5.0,9.0,67,0.00,,,0.00,0,Wunderground v.1.15,2013-01-04 08:57:00,
2013-01-04 04:02:00,32.4,23.0,30.19,WNW,290,6.0,7.0,68,0.00,,,0.00,0,Wunderground v.1.15,2013-01-04 09:02:00,
2013-01-04 04:08:00,32.4,22.7,30.19,WNW,282,5.0,8.0,67,0.00,,,0.00,0,Wunderground v.1.15,2013-01-04 09:08:00,
2013-01-04 04:14:00,32.4,22.7,30.19,WSW,251,5.0,8.0,67,0.00,,,0.00,0,Wunderground v.1.15,2013-01-04 09:14:00,
2013-01-04 04:19:00,32.4,22.7,30.19,NW,325,6.0,12.0,67,0.00,,,0.00,0,Wunderground v.1.15,2013-01-04 09:19:00,
2013-01-04 04:25:00,32.3,22.6,30.18,West,276,6.0,8.0,67,0.00,,,0.00,0,Wunderground v.1.15,2013-01-04 09:25:00,
2013-01-04 04:31:00,32.4,22.7,30.19,West,274,6.0,6.0,67,0.00,,,0.00,0,Wunderground v.1.15,2013-01-04 09:31:00,
2013-01-04 04:36:00,32.3,22.6,30.19,West,270,6.0,8.0,67,0.00,,,0.00,0,Wunderground v.1.15,2013-01-04 09:36:00,
2013-01-04 04:41:00,32.3,22.6,30.19,West,279,6.0,6.0,67,0.00,,,0.00,0,Wunderground v.1.15,2013-01-04 09:41:00,
2013-01-04 04:46:00,32.3,22.6,30.19,West,270,6.0,6.0,67,0.00,,,0.00,0,Wunderground v.1.15,2013-01-04 09:46:00,
2013-01-04 04:51:00,32.3,22.6,30.18,WSW,252,5.0,6.0,67,0.00,,,0.00,0,Wunderground v.1.15,2013-01-04 09:51:00,
2013-01-04 04:57:00,32.2,22.8,30.18,NNW,329,5.0,7.0,68,0.00,,,0.00,0,Wunderground v.1.15,2013-01-04 09:57:00,
2013-01-04 05:03:00,32.2,22.5,30.18,NW,315,5.0,6.0,67,0.00,,,0.00,0,Wunderground v.1.15,2013-01-04 10:03:00,
2013-01-04 05:09:00,32.2,22.5,30.18,West,267,7.0,10.0,67,0.00,,,0.00,0,Wunderground v.1.15,2013-01-04 10:09:00,
2013-01-04 05:15:00,32.2,22.5,30.18,WNW,294,7.0,7.0,67,0.00,,,0.00,0,Wunderground v.1.15,2013-01-04 10:15:00,
2013-01-04 05:20:00,32.1,22.7,30.18,SE,142,6.0,6.0,68,0.00,,,0.00,0,Wunderground v.1.15,2013-01-04 10:20:00,
2013-01-04 05:26:00,32.1,22.7,30.18,NNW,335,5.0,7.0,68,0.00,,,0.00,0,Wunderground v.1.15,2013-01-04 10:26:00,
2013-01-04 05:32:00,32.1,22.7,30.18,West,265,5.0,8.0,68,0.00,,,0.00,0,Wunderground v.1.15,2013-01-04 10:32:00,
2013-01-04 05:37:00,32.1,22.7,30.18,WNW,302,5.0,9.0,68,0.00,,,0.00,0,Wunderground v.1.15,2013-01-04 10:37:00,
2013-01-04 05:43:00,32.0,23.0,30.18,NW,307,6.0,8.0,69,0.00,,,0.00,0,Wunderground v.1.15,2013-01-04 10:43:00,
2013-01-04 05:48:00,31.9,22.9,30.18,WNW,284,5.0,8.0,69,0.00,,,0.00,0,Wunderground v.1.15,2013-01-04 10:48:00,
2013-01-04 05:54:00,31.9,22.9,30.18,WNW,293,5.0,8.0,69,0.00,,,0.00,0,Wunderground v.1.15,2013-01-04 10:54:00,
2013-01-04 06:00:00,32.0,22.6,30.18,West,277,6.0,6.0,68,0.00,,,0.00,0,Wunderground v.1.15,2013-01-04 11:00:00,
2013-01-04 06:06:00,32.0,22.6,30.18,West,271,6.0,11.0,68,0.00,,,0.00,0,Wunderground v.1.15,2013-01-04 11:06:00,
2013-01-04 06:11:00,32.0,22.6,30.18,WSW,257,6.0,8.0,68,0.00,,,0.00,0,Wunderground v.1.15,2013-01-04 11:11:00,
2013-01-04 06:17:00,31.8,22.4,30.18,West,279,6.0,9.0,68,0.00,,,0.00,0,Wunderground v.1.15,2013-01-04 11:17:00,
2013-01-04 06:22:00,31.8,22.8,30.18,West,274,7.0,10.0,69,0.00,,,0.00,0,Wunderground v.1.15,2013-01-04 11:22:00,
2013-01-04 06:28:00,31.4,23.1,30.18,WNW,291,7.0,13.0,71,0.00,,,0.00,0,Wunderground v.1.15,2013-01-04 11:28:00,
2013-01-04 06:34:00,31.1,23.5,30.18,West,264,8.0,11.0,73,0.00,,,0.00,0,Wunderground v.1.15,2013-01-04 11:34:00,
2013-01-04 06:40:00,31.1,23.1,30.18,WSW,246,7.0,7.0,72,0.00,,,0.00,0,Wunderground v.1.15,2013-01-04 11:40:00,
2013-01-04 06:45:00,31.3,23.3,30.18,West,268,6.0,10.0,72,0.00,,,0.00,0,Wunderground v.1.15,2013-01-04 11:45:00,
2013-01-04 06:51:00,31.4,22.7,30.18,West,269,6.0,6.0,70,0.00,,,0.00,0,Wunderground v.1.15,2013-01-04 11:51:00,
2013-01-04 06:57:00,31.4,23.1,30.18,West,266,6.0,9.0,71,0.00,,,0.00,0,Wunderground v.1.15,2013-01-04 11:57:00,
2013-01-04 07:02:00,31.2,23.2,30.18,NW,315,6.0,7.0,72,0.00,,,0.00,0,Wunderground v.1.15,2013-01-04 12:02:00,
2013-01-04 07:08:00,31.0,23.7,30.18,West,268,7.0,10.0,74,0.00,,,0.00,0,Wunderground v.1.15,2013-01-04 12:08:00,
2013-01-04 07:14:00,30.8,24.1,30.18,West,271,5.0,6.0,76,0.00,,,0.00,0,Wunderground v.1.15,2013-01-04 12:14:00,
2013-01-04 07:20:00,30.6,23.9,30.18,West,269,4.0,7.0,76,0.00,,,0.00,0,Wunderground v.1.15,2013-01-04 12:20:00,
2013-01-04 07:25:00,30.6,23.9,30.19,West,273,5.0,7.0,76,0.00,,,0.00,0,Wunderground v.1.15,2013-01-04 12:25:00,
2013-01-04 07:31:00,30.7,24.0,30.19,WNW,288,4.0,5.0,76,0.00,,,0.00,0,Wunderground v.1.15,2013-01-04 12:31:00,
2013-01-04 07:37:00,30.8,23.8,30.18,West,259,4.0,7.0,75,0.00,,,0.00,5,Wunderground v.1.15,2013-01-04 12:37:00,
2013-01-04 07:43:00,30.9,23.6,30.19,WNW,282,4.0,7.0,74,0.00,,,0.00,7,Wunderground v.1.15,2013-01-04 12:43:00,
2013-01-04 07:49:00,31.0,23.4,30.18,SE,142,5.0,8.0,73,0.00,,,0.00,11,Wunderground v.1.15,2013-01-04 12:49:00,
2013-01-04 07:55:00,31.1,23.5,30.18,NW,321,5.0,8.0,73,0.00,,,0.00,16,Wunderground v.1.15,2013-01-04 12:55:00,
2013-01-04 08:00:00,31.1,23.5,30.18,West,281,5.0,5.0,73,0.00,,,0.00,21,Wunderground v.1.15,2013-01-04 13:00:00,
2013-01-04 08:06:00,31.2,23.2,30.18,West,271,4.0,8.0,72,0.00,,,0.00,23,Wunderground v.1.15,2013-01-04 13:06:00,
2013-01-04 08:12:00,31.3,23.3,30.19,NW,311,5.0,5.0,72,0.00,,,0.00,26,Wunderground v.1.15,2013-01-04 13:12:00,
2013-01-04 08:17:00,31.4,23.1,30.19,WSW,254,5.0,8.0,71,0.00,,,0.00,40,Wunderground v.1.15,2013-01-04 13:17:00,
2013-01-04 08:22:00,31.2,23.2,30.19,West,271,6.0,9.0,72,0.00,,,0.00,42,Wunderground v.1.15,2013-01-04 13:22:00,
2013-01-04 08:28:00,31.1,23.5,30.19,West,261,6.0,9.0,73,0.00,,,0.00,53,Wunderground v.1.15,2013-01-04 13:28:00,
2013-01-04 08:33:00,31.1,23.5,30.19,West,263,5.0,7.0,73,0.00,,,0.00,62,Wunderground v.1.15,2013-01-04 13:33:00,
2013-01-04 08:39:00,31.1,23.1,30.19,WSW,257,6.0,9.0,72,0.00,,,0.00,67,Wunderground v.1.15,2013-01-04 13:39:00,
2013-01-04 08:45:00,31.0,23.4,30.19,WNW,288,7.0,10.0,73,0.00,,,0.00,72,Wunderground v.1.15,2013-01-04 13:45:00,
2013-01-04 08:50:00,30.9,23.3,30.20,WNW,293,9.0,9.0,73,0.00,,,0.00,84,Wunderground v.1.15,2013-01-04 13:50:00,
2013-01-04 08:56:00,31.0,23.4,30.20,WSW,253,8.0,11.0,73,0.00,,,0.00,156,Wunderground v.1.15,2013-01-04 13:56:00,
2013-01-04 09:02:00,31.1,23.8,30.20,NW,307,7.0,7.0,74,0.00,,,0.00,151,Wunderground v.1.15,2013-01-04 14:02:00,
2013-01-04 09:07:00,31.1,24.1,30.19,West,274,6.0,8.0,75,0.00,,,0.00,158,Wunderground v.1.15,2013-01-04 14:07:00,
2013-01-04 09:12:00,30.8,23.8,30.20,WNW,298,7.0,8.0,75,0.00,,,0.00,202,Wunderground v.1.15,2013-01-04 14:12:00,
2013-01-04 09:18:00,30.9,24.2,30.20,West,280,8.0,9.0,76,0.00,,,0.00,153,Wunderground v.1.15,2013-01-04 14:18:00,
2013-01-04 09:23:00,30.8,24.4,30.20,WSW,258,7.0,8.0,77,0.00,,,0.00,211,Wunderground v.1.15,2013-01-04 14:23:00,
2013-01-04 09:28:00,30.9,24.5,30.20,West,269,7.0,9.0,77,0.00,,,0.00,202,Wunderground v.1.15,2013-01-04 14:28:00,
2013-01-04 09:33:00,31.0,24.6,30.20,West,277,7.0,8.0,77,0.00,,,0.00,209,Wunderground v.1.15,2013-01-04 14:33:00,
2013-01-04 09:39:00,31.2,24.5,30.20,WNW,287,6.0,9.0,76,0.00,,,0.00,258,Wunderground v.1.15,2013-01-04 14:39:00,
2013-01-04 09:45:00,31.5,24.8,30.20,West,264,6.0,10.0,76,0.00,,,0.00,265,Wunderground v.1.15,2013-01-04 14:45:00,
2013-01-04 09:51:00,31.4,24.4,30.20,West,265,6.0,8.0,75,0.00,,,0.00,244,Wunderground v.1.15,2013-01-04 14:51:00,
2013-01-04 09:57:00,31.5,24.5,30.20,West,278,7.0,8.0,75,0.00,,,0.00,255,Wunderground v.1.15,2013-01-04 14:57:00,
2013-01-04 10:02:00,31.5,24.2,30.20,WSW,250,8.0,8.0,74,0.00,,,0.00,167,Wunderground v.1.15,2013-01-04 15:02:00,
2013-01-04 10:08:00,31.5,23.8,30.20,West,261,7.0,10.0,73,0.00,,,0.00,156,Wunderground v.1.15,2013-01-04 15:08:00,
2013-01-04 10:14:00,31.5,23.8,30.20,WSW,238,7.0,11.0,73,0.00,,,0.00,149,Wunderground v.1.15,2013-01-04 15:14:00,
2013-01-04 10:20:00,31.7,23.7,30.20,WNW,287,6.0,8.0,72,0.00,,,0.00,148,Wunderground v.1.15,2013-01-04 15:20:00,
2013-01-04 10:26:00,31.7,23.7,30.20,NW,307,7.0,13.0,72,0.00,,,0.00,169,Wunderground v.1.15,2013-01-04 15:26:00,
2013-01-04 10:31:00,31.8,23.5,30.19,NNW,331,7.0,11.0,71,0.00,,,0.00,174,Wunderground v.1.15,2013-01-04 15:31:00,
2013-01-04 10:37:00,31.9,23.6,30.19,NW,309,7.0,12.0,71,0.00,,,0.00,188,Wunderground v.1.15,2013-01-04 15:37:00,
2013-01-04 10:42:00,32.0,23.3,30.19,West,267,7.0,7.0,70,0.00,,,0.00,195,Wunderground v.1.15,2013-01-04 15:42:00,
2013-01-04 10:48:00,32.2,23.5,30.18,West,279,7.0,8.0,70,0.00,,,0.00,214,Wunderground v.1.15,2013-01-04 15:48:00,
2013-01-04 10:53:00,32.3,23.3,30.18,NNW,337,6.0,8.0,69,0.00,,,0.00,207,Wunderground v.1.15,2013-01-04 15:53:00,
2013-01-04 10:59:00,32.3,23.3,30.18,WNW,287,7.0,10.0,69,0.00,,,0.00,183,Wunderground v.1.15,2013-01-04 15:59:00,
2013-01-04 11:05:00,32.2,23.2,30.18,West,275,8.0,11.0,69,0.00,,,0.00,207,Wunderground v.1.15,2013-01-04 16:05:00,
2013-01-04 11:10:00,32.3,23.3,30.18,WSW,248,8.0,8.0,69,0.00,,,0.00,181,Wunderground v.1.15,2013-01-04 16:10:00,
2013-01-04 11:16:00,32.3,23.3,30.17,West,263,6.0,8.0,69,0.00,,,0.00,176,Wunderground v.1.15,2013-01-04 16:16:00,
2013-01-04 11:21:00,32.2,23.2,30.17,WNW,303,7.0,9.0,69,0.00,,,0.00,193,Wunderground v.1.15,2013-01-04 16:21:00,
2013-01-04 11:27:00,32.5,23.5,30.17,WNW,297,7.0,9.0,69,0.00,,,0.00,253,Wunderground v.1.15,2013-01-04 16:27:00,
2013-01-04 11:33:00,32.7,22.9,30.17,SW,234,8.0,10.0,67,0.00,,,0.00,204,Wunderground v.1.15,2013-01-04 16:33:00,
2013-01-04 11:39:00,32.9,22.8,30.17,West,276,7.0,13.0,66,0.00,,,0.00,288,Wunderground v.1.15,2013-01-04 16:39:00,
2013-01-04 11:45:00,33.4,23.3,30.16,WNW,286,5.0,8.0,66,0.00,,,0.00,294,Wunderground v.1.15,2013-01-04 16:45:00,
2013-01-04 11:51:00,33.4,22.5,30.16,WSW,237,6.0,6.0,64,0.00,,,0.00,244,Wunderground v.1.15,2013-01-04 16:51:00,
2013-01-04 11:57:00,33.3,22.4,30.16,West,267,7.0,8.0,64,0.00,,,0.00,244,Wunderground v.1.15,2013-01-04 16:57:00,
2013-01-04 12:02:00,33.3,22.1,30.15,West,267,7.0,10.0,63,0.00,,,0.00,172,Wunderground v.1.15,2013-01-04 17:02:00,
2013-01-04 12:08:00,33.6,22.3,30.15,WNW,290,8.0,10.0,63,0.00,,,0.00,471,Wunderground v.1.15,2013-01-04 17:08:00,
2013-01-04 12:14:00,33.5,22.2,30.14,WNW,302,8.0,10.0,63,0.00,,,0.00,128,Wunderground v.1.15,2013-01-04 17:14:00,
2013-01-04 12:20:00,34.1,22.0,30.14,West,277,8.0,11.0,61,0.00,,,0.00,526,Wunderground v.1.15,2013-01-04 17:20:00,
2013-01-04 12:26:00,34.4,22.3,30.13,WSW,254,7.0,8.0,61,0.00,,,0.00,468,Wunderground v.1.15,2013-01-04 17:26:00,
2013-01-04 12:31:00,34.9,21.6,30.13,West,275,7.0,9.0,58,0.00,,,0.00,441,Wunderground v.1.15,2013-01-04 17:31:00,
2013-01-04 12:37:00,34.8,20.7,30.13,WSW,256,8.0,11.0,56,0.00,,,0.00,427,Wunderground v.1.15,2013-01-04 17:37:00,
2013-01-04 12:42:00,34.6,20.9,30.12,NW,304,9.0,14.0,57,0.00,,,0.00,424,Wunderground v.1.15,2013-01-04 17:42:00,
2013-01-04 12:48:00,34.5,20.8,30.13,NNE,15,9.0,14.0,57,0.00,,,0.00,364,Wunderground v.1.15,2013-01-04 17:48:00,
2013-01-04 12:54:00,34.4,21.5,30.12,WSW,253,8.0,11.0,59,0.00,,,0.00,62,Wunderground v.1.15,2013-01-04 17:54:00,
2013-01-04 12:59:00,34.3,21.0,30.12,West,262,8.0,11.0,58,0.00,,,0.00,100,Wunderground v.1.15,2013-01-04 17:59:00,
2013-01-04 13:05:00,34.3,21.4,30.11,NNW,333,8.0,13.0,59,0.00,,,0.00,413,Wunderground v.1.15,2013-01-04 18:05:00,
2013-01-04 13:10:00,34.2,21.4,30.11,West,279,9.0,9.0,59,0.00,,,0.00,401,Wunderground v.1.15,2013-01-04 18:10:00,
2013-01-04 13:16:00,34.1,21.7,30.11,WSW,254,9.0,14.0,60,0.00,,,0.00,397,Wunderground v.1.15,2013-01-04 18:16:00,
2013-01-04 13:22:00,34.1,22.0,30.10,West,281,8.0,9.0,61,0.00,,,0.00,67,Wunderground v.1.15,2013-01-04 18:22:00,
2013-01-04 13:28:00,34.0,21.6,30.10,NW,304,8.0,11.0,60,0.00,,,0.00,72,Wunderground v.1.15,2013-01-04 18:28:00,
2013-01-04 13:33:00,34.1,22.0,30.10,West,263,8.0,8.0,61,0.00,,,0.00,70,Wunderground v.1.15,2013-01-04 18:33:00,
2013-01-04 13:39:00,34.2,22.1,30.10,WNW,297,7.0,8.0,61,0.00,,,0.00,69,Wunderground v.1.15,2013-01-04 18:39:00,
2013-01-04 13:44:00,34.2,21.7,30.10,WSW,257,8.0,13.0,60,0.00,,,0.00,60,Wunderground v.1.15,2013-01-04 18:44:00,
2013-01-04 13:50:00,34.0,22.0,30.09,WNW,287,9.0,10.0,61,0.00,,,0.00,58,Wunderground v.1.15,2013-01-04 18:50:00,
2013-01-04 13:55:00,34.2,21.7,30.10,WNW,300,9.0,12.0,60,0.00,,,0.00,62,Wunderground v.1.15,2013-01-04 18:55:00,
2013-01-04 14:00:00,34.3,21.8,30.09,WNW,296,8.0,8.0,60,0.00,,,0.00,65,Wunderground v.1.15,2013-01-04 19:00:00,
2013-01-04 14:06:00,34.4,21.9,30.09,West,264,8.0,11.0,60,0.00,,,0.00,56,Wunderground v.1.15,2013-01-04 19:06:00,
2013-01-04 14:11:00,34.6,22.1,30.09,West,273,8.0,8.0,60,0.00,,,0.00,53,Wunderground v.1.15,2013-01-04 19:11:00,
2013-01-04 14:17:00,34.6,22.1,30.09,West,279,8.0,13.0,60,0.00,,,0.00,53,Wunderground v.1.15,2013-01-04 19:17:00,
2013-01-04 14:23:00,34.6,22.1,30.08,West,281,8.0,8.0,60,0.00,,,0.00,49,Wunderground v.1.15,2013-01-04 19:23:00,
2013-01-04 14:29:00,34.7,22.2,30.09,NW,309,8.0,11.0,60,0.00,,,0.00,49,Wunderground v.1.15,2013-01-04 19:29:00,
2013-01-04 14:35:00,34.8,22.3,30.08,NNW,338,7.0,11.0,60,0.00,,,0.00,49,Wunderground v.1.15,2013-01-04 19:35:00,
2013-01-04 14:40:00,34.8,22.3,30.08,WNW,283,8.0,10.0,60,0.00,,,0.00,49,Wunderground v.1.15,2013-01-04 19:40:00,
2013-01-04 14:46:00,34.9,22.4,30.08,WNW,282,7.0,12.0,60,0.00,,,0.00,46,Wunderground v.1.15,2013-01-04 19:46:00,
2013-01-04 14:52:00,34.9,22.0,30.08,WSW,253,8.0,12.0,59,0.00,,,0.00,44,Wunderground v.1.15,2013-01-04 19:52:00,
2013-01-04 14:58:00,35.0,22.5,30.08,West,277,9.0,12.0,60,0.00,,,0.00,49,Wunderground v.1.15,2013-01-04 19:58:00,
2013-01-04 15:03:00,35.1,22.6,30.08,West,262,7.0,10.0,60,0.00,,,0.00,46,Wunderground v.1.15,2013-01-04 20:03:00,
2013-01-04 15:09:00,35.0,22.1,30.08,West,278,8.0,15.0,59,0.00,,,0.00,40,Wunderground v.1.15,2013-01-04 20:09:00,
2013-01-04 15:14:00,35.1,22.6,30.08,WNW,284,8.0,8.0,60,0.00,,,0.00,40,Wunderground v.1.15,2013-01-04 20:14:00,
2013-01-04 15:20:00,35.1,22.6,30.08,WNW,283,7.0,7.0,60,0.00,,,0.00,39,Wunderground v.1.15,2013-01-04 20:20:00,
2013-01-04 15:26:00,35.1,22.6,30.09,West,277,7.0,12.0,60,0.00,,,0.00,39,Wunderground v.1.15,2013-01-04 20:26:00,
2013-01-04 15:31:00,34.9,22.4,30.09,NW,319,8.0,13.0,60,0.00,,,0.00,37,Wunderground v.1.15,2013-01-04 20:31:00,
2013-01-04 15:37:00,34.7,22.2,30.09,WNW,294,8.0,13.0,60,0.00,,,0.00,35,Wunderground v.1.15,2013-01-04 20:37:00,
2013-01-04 15:42:00,34.8,22.3,30.08,West,264,7.0,12.0,60,0.00,,,0.00,32,Wunderground v.1.15,2013-01-04 20:42:00,
2013-01-04 15:48:00,35.0,22.9,30.08,WNW,286,5.0,12.0,61,0.00,,,0.00,30,Wunderground v.1.15,2013-01-04 20:48:00,
2013-01-04 15:54:00,35.0,22.9,30.09,South,185,5.0,6.0,61,0.00,,,0.00,28,Wunderground v.1.15,2013-01-04 20:54:00,
2013-01-04 16:00:00,34.8,22.7,30.09,WSW,252,5.0,11.0,61,0.00,,,0.00,26,Wunderground v.1.15,2013-01-04 21:00:00,
2013-01-04 16:06:00,34.6,22.5,30.09,West,270,6.0,11.0,61,0.00,,,0.00,25,Wunderground v.1.15,2013-01-04 21:06:00,
2013-01-04 16:11:00,34.6,22.5,30.09,West,261,7.0,9.0,61,0.00,,,0.00,23,Wunderground v.1.15,2013-01-04 21:11:00,
2013-01-04 16:16:00,34.6,22.5,30.09,SSE,153,6.0,11.0,61,0.00,,,0.00,19,Wunderground v.1.15,2013-01-04 21:16:00,
2013-01-04 16:22:00,34.4,22.7,30.09,SSE,154,6.0,6.0,62,0.00,,,0.00,18,Wunderground v.1.15,2013-01-04 21:22:00,
2013-01-04 16:27:00,34.3,22.6,30.09,West,274,6.0,12.0,62,0.00,,,0.00,16,Wunderground v.1.15,2013-01-04 21:27:00,
2013-01-04 16:33:00,34.2,22.9,30.09,West,278,7.0,7.0,63,0.00,,,0.00,12,Wunderground v.1.15,2013-01-04 21:33:00,
2013-01-04 16:38:00,34.1,22.8,30.09,West,265,6.0,7.0,63,0.00,,,0.00,11,Wunderground v.1.15,2013-01-04 21:38:00,
2013-01-04 16:44:00,34.1,22.8,30.10,West,276,5.0,6.0,63,0.00,,,0.00,7,Wunderground v.1.15,2013-01-04 21:44:00,
2013-01-04 16:50:00,34.1,22.8,30.10,WSW,251,6.0,8.0,63,0.00,,,0.00,5,Wunderground v.1.15,2013-01-04 21:50:00,
2013-01-04 16:55:00,34.1,23.2,30.11,West,277,7.0,8.0,64,0.00,,,0.00,0,Wunderground v.1.15,2013-01-04 21:55:00,
2013-01-04 17:00:00,34.0,23.1,30.10,West,274,6.0,8.0,64,0.00,,,0.00,0,Wunderground v.1.15,2013-01-04 22:00:00,
2013-01-04 17:05:00,33.9,22.6,30.11,West,277,7.0,8.0,63,0.00,,,0.00,0,Wunderground v.1.15,2013-01-04 22:05:00,
2013-01-04 17:11:00,34.1,22.8,30.11,West,259,8.0,10.0,63,0.00,,,0.00,0,Wunderground v.1.15,2013-01-04 22:11:00,
2013-01-04 17:17:00,34.0,22.7,30.11,WNW,286,8.0,12.0,63,0.00,,,0.00,0,Wunderground v.1.15,2013-01-04 22:17:00,
2013-01-04 17:23:00,33.9,22.6,30.11,West,263,8.0,10.0,63,0.00,,,0.00,0,Wunderground v.1.15,2013-01-04 22:23:00,
2013-01-04 17:28:00,33.9,22.6,30.12,WNW,297,8.0,15.0,63,0.00,,,0.00,0,Wunderground v.1.15,2013-01-04 22:28:00,
2013-01-04 17:34:00,33.8,22.9,30.12,West,259,7.0,10.0,64,0.00,,,0.00,0,Wunderground v.1.15,2013-01-04 22:34:00,
2013-01-04 17:39:00,33.8,22.9,30.12,WNW,288,7.0,11.0,64,0.00,,,0.00,0,Wunderground v.1.15,2013-01-04 22:39:00,
2013-01-04 17:45:00,33.6,22.7,30.12,SSE,165,7.0,7.0,64,0.00,,,0.00,0,Wunderground v.1.15,2013-01-04 22:45:00,
2013-01-04 17:51:00,33.5,22.6,30.12,SW,236,6.0,6.0,64,0.00,,,0.00,0,Wunderground v.1.15,2013-01-04 22:51:00,
2013-01-04 17:57:00,33.4,22.5,30.12,WSW,252,6.0,9.0,64,0.00,,,0.00,0,Wunderground v.1.15,2013-01-04 22:57:00,
2013-01-04 18:02:00,33.4,22.5,30.12,West,269,6.0,7.0,64,0.00,,,0.00,0,Wunderground v.1.15,2013-01-04 23:02:00,
2013-01-04 18:07:00,33.4,22.5,30.12,WSW,253,7.0,11.0,64,0.00,,,0.00,0,Wunderground v.1.15,2013-01-04 23:07:00,
2013-01-04 18:13:00,33.3,22.4,30.12,WNW,286,7.0,8.0,64,0.00,,,0.00,0,Wunderground v.1.15,2013-01-04 23:13:00,
2013-01-04 18:19:00,33.3,22.8,30.13,West,271,7.0,10.0,65,0.00,,,0.00,0,Wunderground v.1.15,2013-01-04 23:19:00,
2013-01-04 18:24:00,33.1,22.6,30.13,West,265,6.0,9.0,65,0.00,,,0.00,0,Wunderground v.1.15,2013-01-04 23:24:00,
2013-01-04 18:30:00,33.1,22.6,30.13,NW,313,7.0,7.0,65,0.00,,,0.00,0,Wunderground v.1.15,2013-01-04 23:30:00,
2013-01-04 18:36:00,33.1,22.6,30.13,West,259,7.0,9.0,65,0.00,,,0.00,0,Wunderground v.1.15,2013-01-04 23:36:00,
2013-01-04 18:41:00,33.0,22.5,30.13,ESE,110,6.0,6.0,65,0.00,,,0.00,0,Wunderground v.1.15,2013-01-04 23:41:00,
2013-01-04 18:47:00,32.9,22.4,30.13,WSW,247,5.0,9.0,65,0.00,,,0.00,0,Wunderground v.1.15,2013-01-04 23:47:00,
2013-01-04 18:53:00,32.6,22.5,30.13,West,267,4.0,5.0,66,0.00,,,0.00,0,Wunderground v.1.15,2013-01-04 23:53:00,
2013-01-04 18:58:00,32.3,22.6,30.13,West,277,3.0,5.0,67,0.00,,,0.00,0,Wunderground v.1.15,2013-01-04 23:58:00,
2013-01-04 19:04:00,32.1,22.4,30.13,West,269,3.0,12.0,67,0.00,,,0.00,0,Wunderground v.1.15,2013-01-05 00:04:00,
2013-01-04 19:09:00,31.9,22.5,30.13,WSW,258,2.0,12.0,68,0.00,,,0.00,0,Wunderground v.1.15,2013-01-05 00:09:00,
2013-01-04 19:15:00,31.7,22.0,30.13,NNW,329,2.0,5.0,67,0.00,,,0.00,0,Wunderground v.1.15,2013-01-05 00:15:00,
2013-01-04 19:20:00,31.6,21.9,30.13,WNW,293,3.0,3.0,67,0.00,,,0.00,0,Wunderground v.1.15,2013-01-05 00:20:00,
2013-01-04 19:26:00,31.5,21.8,30.13,WNW,284,3.0,6.0,67,0.00,,,0.00,0,Wunderground v.1.15,2013-01-05 00:26:00,
2013-01-04 19:32:00,31.5,21.8,30.13,West,274,3.0,6.0,67,0.00,,,0.00,0,Wunderground v.1.15,2013-01-05 00:32:00,
2013-01-04 19:37:00,31.4,21.7,30.13,SW,225,3.0,6.0,67,0.00,,,0.00,0,Wunderground v.1.15,2013-01-05 00:37:00,
2013-01-04 19:42:00,31.4,21.7,30.13,SSE,157,3.0,5.0,67,0.00,,,0.00,0,Wunderground v.1.15,2013-01-05 00:42:00,
2013-01-04 19:47:00,31.4,21.7,30.13,West,261,3.0,5.0,67,0.00,,,0.00,0,Wunderground v.1.15,2013-01-05 00:47:00,
2013-01-04 19:53:00,31.5,21.8,30.13,West,263,4.0,6.0,67,0.00,,,0.00,0,Wunderground v.1.15,2013-01-05 00:53:00,
2013-01-04 19:59:00,31.6,21.5,30.14,West,261,3.0,6.0,66,0.00,,,0.00,0,Wunderground v.1.15,2013-01-05 00:59:00,
2013-01-04 20:05:00,31.7,21.6,30.14,West,271,3.0,6.0,66,0.00,,,0.00,0,Wunderground v.1.15,2013-01-05 01:05:00,
2013-01-04 20:10:00,31.8,21.4,30.14,WNW,284,4.0,4.0,65,0.00,,,0.00,0,Wunderground v.1.15,2013-01-05 01:10:00,
2013-01-04 20:16:00,31.9,21.1,30.14,West,276,4.0,7.0,64,0.00,,,0.00,0,Wunderground v.1.15,2013-01-05 01:16:00,
2013-01-04 20:21:00,32.0,21.2,30.14,WNW,298,5.0,7.0,64,0.00,,,0.00,0,Wunderground v.1.15,2013-01-05 01:21:00,
2013-01-04 20:27:00,32.1,21.3,30.14,West,265,5.0,7.0,64,0.00,,,0.00,0,Wunderground v.1.15,2013-01-05 01:27:00,
2013-01-04 20:32:00,32.1,21.3,30.14,West,260,5.0,6.0,64,0.00,,,0.00,0,Wunderground v.1.15,2013-01-05 01:32:00,
2013-01-04 20:38:00,32.1,20.9,30.14,WNW,285,6.0,9.0,63,0.00,,,0.00,0,Wunderground v.1.15,2013-01-05 01:38:00,
2013-01-04 20:44:00,32.1,20.9,30.14,West,259,5.0,8.0,63,0.00,,,0.00,0,Wunderground v.1.15,2013-01-05 01:44:00,
2013-01-04 20:50:00,32.0,20.8,30.14,WSW,251,5.0,7.0,63,0.00,,,0.00,0,Wunderground v.1.15,2013-01-05 01:50:00,
2013-01-04 20:56:00,31.8,20.6,30.14,WSW,247,4.0,7.0,63,0.00,,,0.00,0,Wunderground v.1.15,2013-01-05 01:56:00,
2013-01-04 21:02:00,31.6,20.4,30.14,West,260,4.0,7.0,63,0.00,,,0.00,0,Wunderground v.1.15,2013-01-05 02:02:00,
2013-01-04 21:07:00,31.6,20.8,30.14,WSW,246,4.0,7.0,64,0.00,,,0.00,0,Wunderground v.1.15,2013-01-05 02:07:00,
2013-01-04 21:13:00,31.6,20.8,30.14,West,275,4.0,6.0,64,0.00,,,0.00,0,Wunderground v.1.15,2013-01-05 02:13:00,
2013-01-04 21:19:00,31.5,20.7,30.15,WNW,284,3.0,6.0,64,0.00,,,0.00,0,Wunderground v.1.15,2013-01-05 02:19:00,
2013-01-04 21:24:00,31.6,20.4,30.15,West,264,3.0,5.0,63,0.00,,,0.00,0,Wunderground v.1.15,2013-01-05 02:24:00,
2013-01-04 21:30:00,31.7,20.5,30.15,West,262,4.0,6.0,63,0.00,,,0.00,0,Wunderground v.1.15,2013-01-05 02:30:00,
2013-01-04 21:36:00,31.9,20.7,30.15,West,260,5.0,6.0,63,0.00,,,0.00,0,Wunderground v.1.15,2013-01-05 02:36:00,
2013-01-04 21:42:00,32.0,20.4,30.15,WSW,248,5.0,5.0,62,0.00,,,0.00,0,Wunderground v.1.15,2013-01-05 02:42:00,
2013-01-04 21:47:00,31.9,20.3,30.15,WSW,256,4.0,5.0,62,0.00,,,0.00,0,Wunderground v.1.15,2013-01-05 02:47:00,
2013-01-04 21:53:00,31.9,20.7,30.15,West,274,3.0,4.0,63,0.00,,,0.00,0,Wunderground v.1.15,2013-01-05 02:53:00,
2013-01-04 21:59:00,31.9,20.7,30.15,WNW,284,4.0,7.0,63,0.00,,,0.00,0,Wunderground v.1.15,2013-01-05 02:59:00,
2013-01-04 22:05:00,31.8,20.6,30.15,WNW,288,4.0,4.0,63,0.00,,,0.00,0,Wunderground v.1.15,2013-01-05 03:05:00,
2013-01-04 22:11:00,31.6,20.4,30.15,West,264,4.0,6.0,63,0.00,,,0.00,0,Wunderground v.1.15,2013-01-05 03:11:00,
2013-01-04 22:17:00,31.5,20.7,30.15,West,266,5.0,7.0,64,0.00,,,0.00,0,Wunderground v.1.15,2013-01-05 03:17:00,
2013-01-04 22:23:00,31.4,20.6,30.16,West,262,5.0,6.0,64,0.00,,,0.00,0,Wunderground v.1.15,2013-01-05 03:23:00,
2013-01-04 22:29:00,31.3,20.5,30.15,WSW,255,5.0,6.0,64,0.00,,,0.00,0,Wunderground v.1.15,2013-01-05 03:29:00,
2013-01-04 22:34:00,31.2,20.4,30.15,WNW,285,5.0,7.0,64,0.00,,,0.00,0,Wunderground v.1.15,2013-01-05 03:34:00,
2013-01-04 22:40:00,31.3,20.5,30.15,WNW,292,5.0,6.0,64,0.00,,,0.00,0,Wunderground v.1.15,2013-01-05 03:40:00,
2013-01-04 22:45:00,31.3,20.5,30.16,West,267,5.0,7.0,64,0.00,,,0.00,0,Wunderground v.1.15,2013-01-05 03:45:00,
2013-01-04 22:51:00,31.2,20.4,30.16,WNW,294,4.0,6.0,64,0.00,,,0.00,0,Wunderground v.1.15,2013-01-05 03:51:00,
2013-01-04 22:56:00,31.4,20.6,30.16,West,279,4.0,7.0,64,0.00,,,0.00,0,Wunderground v.1.15,2013-01-05 03:56:00,
2013-01-04 23:02:00,31.5,20.7,30.16,WNW,292,5.0,8.0,64,0.00,,,0.00,0,Wunderground v.1.15,2013-01-05 04:02:00,
2013-01-04 23:07:00,31.5,20.3,30.16,West,269,6.0,10.0,63,0.00,,,0.00,0,Wunderground v.1.15,2013-01-05 04:07:00,
2013-01-04 23:13:00,31.6,20.4,30.16,SSW,209,6.0,8.0,63,0.00,,,0.00,0,Wunderground v.1.15,2013-01-05 04:13:00,
2013-01-04 23:18:00,31.5,20.3,30.17,West,267,6.0,8.0,63,0.00,,,0.00,0,Wunderground v.1.15,2013-01-05 04:18:00,
2013-01-04 23:24:00,31.5,20.3,30.17,SSW,209,6.0,6.0,63,0.00,,,0.00,0,Wunderground v.1.15,2013-01-05 04:24:00,
2013-01-04 23:30:00,31.4,20.2,30.17,WSW,257,6.0,6.0,63,0.00,,,0.00,0,Wunderground v.1.15,2013-01-05 04:30:00,
2013-01-04 23:35:00,31.4,20.2,30.17,NW,309,6.0,6.0,63,0.00,,,0.00,0,Wunderground v.1.15,2013-01-05 04:35:00,
2013-01-04 23:41:00,31.4,20.2,30.17,WSW,253,6.0,6.0,63,0.00,,,0.00,0,Wunderground v.1.15,2013-01-05 04:41:00,
2013-01-04 23:46:00,31.2,20.1,30.17,West,263,6.0,6.0,63,0.00,,,0.00,0,Wunderground v.1.15,2013-01-05 04:46:00,
2013-01-04 23:52:00,31.2,20.1,30.17,West,267,6.0,7.0,63,0.00,,,0.00,0,Wunderground v.1.15,2013-01-05 04:52:00,
2013-01-04 23:57:00,31.0,20.2,30.17,West,270,6.0,7.0,64,0.00,,,0.00,0,Wunderground v.1.15,2013-01-05 04:57:00,